Total_Precipitation_Accumulation
0.03 0.03 0.04 0.08 0.21 0.42 0.60 0.49 0.44 0.46 0.49 0.42 0.41 0.43 0.53 0.68 0.94 1.71 1.06 0.58 0.37 0.29 0.32 0.31 0.44 0.44 0.43 0.44 0.48 0.55 0.66 0.66 0.71 0.71 0.70 0.70 0.77 0.75 0.74 0.83 0.94 1.16 1.38 1.50 1.55 1.63 1.84 2.00 1.94
0.03 0.04 0.07 0.13 0.32 0.54 0.64 0.48 0.49 0.46 0.44 0.43 0.42 0.43 0.44 0.55 0.46 0.55 0.49 0.49 0.49 0.45 0.44 0.38 0.46 0.50 0.44 0.45 0.52 0.60 0.70 0.73 0.85 0.84 0.70 0.70 0.73 0.77 0.79 0.85 0.95 1.19 1.47 1.65 1.65 1.62 1.70 1.70 1.71
0.03 0.04 0.09 0.20 0.38 0.47 0.63 0.50 0.54 0.50 0.42 0.42 0.49 0.53 0.58 0.70 0.63 0.61 0.55 0.55 0.64 0.61 0.54 0.50 0.55 0.58 0.56 0.56 0.59 0.64 0.74 0.81 0.89 0.78 0.73 0.79 0.80 0.80 0.84 0.86 0.93 1.11 1.47 1.68 1.62 1.49 1.42 1.45 1.54
0.03 0.06 0.11 0.25 0.36 0.33 0.49 0.55 0.54 0.57 0.49 0.46 0.52 0.69 0.70 0.66 0.63 0.63 0.59 0.60 0.57 0.56 0.51 0.46 0.52 0.55 0.60 0.57 0.58 0.69 0.72 0.80 0.86 0.84 0.85 0.89 0.92 0.94 0.91 0.96 1.06 1.14 1.38 1.61 1.54 1.45 1.43 1.43 1.50
0.04 0.08 0.17 0.30 0.31 0.26 0.37 0.47 0.60 0.64 0.61 0.55 0.60 0.89 1.13 0.98 0.86 0.79 0.65 0.61 0.64 0.56 0.50 0.44 0.49 0.55 0.58 0.62 0.64 0.80 0.86 0.91 0.96 1.00 0.98 0.97 1.00 1.04 0.99 1.04 1.13 1.24 1.32 1.45 1.43 1.42 1.44 1.35 1.46
0.03 0.08 0.22 0.32 0.29 0.26 0.35 0.47 0.55 0.59 0.53 0.51 0.67 1.12 1.66 1.40 1.09 1.14 1.01 0.75 0.75 0.64 0.58 0.54 0.54 0.66 0.77 0.80 0.80 0.91 0.92 1.00 1.05 1.12 1.10 1.03 0.99 0.97 0.96 1.04 1.10 1.23 1.37 1.37 1.27 1.26 1.29 1.34 1.45
0.04 0.11 0.22 0.31 0.39 0.37 0.41 0.47 0.55 0.55 0.57 0.65 0.91 1.39 1.82 1.62 1.31 1.32 1.26 0.98 0.88 0.74 0.64 0.59 0.58 0.77 1.00 1.04 0.96 0.95 0.93 1.02 1.12 1.26 1.29 1.15 1.04 0.96 1.00 1.06 1.12 1.22 1.28 1.19 1.11 1.10 1.12 1.22 1.36
0.03 0.08 0.17 0.25 0.46 0.47 0.44 0.51 0.53 0.50 0.60 0.79 1.06 1.40 1.74 1.66 1.40 1.24 1.19 1.16 1.11 1.06 0.88 0.78 0.80 0.90 1.02 1.04 1.07 1.03 1.02 1.12 1.23 1.32 1.35 1.30 1.19 1.10 1.14 1.10 1.21 1.25 1.28 1.22 1.18 1.17 1.15 1.17 1.24
0.03 0.09 0.16 0.26 0.45 0.47 0.45 0.44 0.44 0.46 0.52 0.78 0.93 0.97 1.31 1.42 1.33 1.35 1.34 1.26 1.25 1.24 1.31 1.24 1.17 1.17 1.17 1.14 1.14 1.24 1.23 1.27 1.31 1.37 1.36 1.31 1.31 1.38 1.38 1.24 1.34 1.40 1.48 1.50 1.41 1.36 1.33 1.28 1.30
0.06 0.14 0.18 0.21 0.26 0.34 0.40 0.44 0.40 0.47 0.52 0.77 1.11 1.03 1.06 1.27 1.44 1.56 1.60 1.50 1.47 1.52 1.62 1.65 1.65 1.63 1.59 1.50 1.67 1.74 1.54 1.46 1.42 1.56 1.41 1.40 1.70 1.79 1.57 1.69 1.78 1.90 1.90 1.82 1.71 1.58 1.50 1.39 1.32
0.08 0.13 0.18 0.23 0.20 0.26 0.34 0.39 0.36 0.52 0.71 0.79 1.13 1.46 1.37 1.52 1.81 2.07 1.92 1.94 2.00 1.93 1.72 1.67 1.94 2.05 2.13 2.26 2.15 2.13 2.09 2.04 1.96 2.06 1.93 1.94 2.13 2.05 2.03 2.09 2.02 1.99 2.01 1.96 2.05 1.83 1.46 1.35 1.53
0.10 0.13 0.18 0.20 0.20 0.20 0.24 0.36 0.41 0.55 0.88 0.99 1.25 1.52 1.89 1.91 2.10 2.19 2.27 2.32 2.27 2.29 2.10 1.88 1.95 2.02 2.20 2.42 2.43 2.39 2.29 2.23 2.17 2.29 2.12 2.28 2.48 2.57 2.53 2.59 2.39 2.33 2.28 2.41 2.43 2.26 1.92 1.69 1.69
0.13 0.13 0.14 0.18 0.16 0.15 0.26 0.38 0.39 0.48 0.63 0.85 1.10 1.31 1.71 1.81 1.92 2.25 2.57 2.88 2.87 2.68 2.54 2.37 2.15 2.09 2.26 2.59 2.77 2.73 2.77 2.62 2.67 2.79 2.59 2.56 2.62 2.69 3.00 3.01 3.21 2.82 2.75 2.90 2.86 2.60 2.47 2.23 2.05
0.12 0.11 0.11 0.16 0.15 0.16 0.26 0.32 0.37 0.41 0.53 0.64 0.76 1.00 1.32 1.57 1.86 2.47 2.92 3.24 3.51 3.33 2.98 2.71 2.54 2.39 2.39 2.54 2.89 3.01 2.86 2.90 2.95 3.07 2.98 2.93 2.97 3.08 3.42 3.56 3.65 3.39 3.41 3.63 3.64 3.37 3.12 2.84 2.76
0.11 0.12 0.14 0.14 0.18 0.15 0.19 0.35 0.41 0.47 0.51 0.60 0.69 0.89 1.28 1.74 2.00 2.72 3.30 3.62 3.86 3.59 3.41 3.13 3.00 3.00 2.79 2.73 3.04 3.16 3.07 3.03 3.10 3.29 3.36 3.24 3.33 3.64 3.75 4.10 4.09 3.87 3.86 3.91 3.88 4.07 3.99 3.47 3.16
0.13 0.17 0.22 0.18 0.17 0.14 0.18 0.41 0.48 0.50 0.57 0.67 0.77 0.98 1.32 1.77 2.07 2.44 2.88 3.28 3.73 3.82 3.61 3.44 3.05 3.03 3.24 3.26 3.54 3.49 3.57 3.72 3.69 3.73 3.90 3.84 3.89 3.99 4.03 4.08 4.18 4.11 4.08 4.39 4.56 4.47 4.38 4.14 3.79
0.15 0.17 0.19 0.21 0.17 0.16 0.15 0.32 0.50 0.50 0.52 0.68 0.82 1.17 1.60 1.75 2.01 2.13 2.51 2.81 3.20 3.28 3.41 3.49 3.37 3.30 3.33 3.55 3.98 4.11 4.33 4.51 4.67 4.71 4.91 4.81 4.58 4.48 4.55 4.53 4.68 4.53 4.60 4.62 4.46 4.89 4.86 4.73 4.28
0.09 0.12 0.14 0.20 0.18 0.16 0.17 0.26 0.52 0.64 0.64 0.78 0.89 1.10 1.45 1.59 2.01 2.26 2.41 2.46 2.97 3.29 3.42 3.50 3.66 3.85 3.82 3.88 4.21 4.67 4.89 5.03 5.36 5.40 5.41 5.47 5.45 5.32 5.33 5.28 5.31 5.18 5.04 4.98 4.94 5.04 4.80 4.63 4.35
0.07 0.10 0.13 0.15 0.15 0.17 0.25 0.38 0.56 0.72 0.76 0.98 1.17 1.25 1.31 1.51 2.02 2.46 2.59 2.69 3.09 3.41 3.60 3.50 3.69 4.08 4.37 4.76 4.79 5.04 5.52 5.85 5.95 5.99 5.96 5.86 5.79 5.83 5.70 5.53 5.67 5.50 5.24 5.03 5.00 4.97 4.83 4.47 4.43
0.05 0.09 0.12 0.15 0.17 0.18 0.32 0.53 0.58 0.70 0.84 1.14 1.35 1.35 1.33 1.51 1.86 2.32 2.53 2.91 3.26 3.39 3.63 3.73 3.86 4.36 4.84 5.40 5.94 6.35 6.81 6.85 6.97 6.87 6.72 6.36 6.19 6.12 5.92 5.97 5.79 5.61 5.50 5.22 5.01 4.96 4.85 4.48 4.53
0.05 0.07 0.10 0.14 0.19 0.24 0.37 0.67 0.76 0.87 1.01 1.23 1.34 1.29 1.37 1.59 1.92 2.21 2.52 2.92 3.27 3.45 3.68 3.82 4.14 4.75 5.58 6.17 6.68 7.23 7.59 7.33 7.11 6.77 6.61 6.49 6.43 6.36 6.25 6.26 5.98 5.77 5.53 5.18 4.89 4.77 4.69 4.56 4.56
0.07 0.08 0.08 0.11 0.20 0.33 0.38 0.75 1.08 1.20 1.33 1.32 1.32 1.45 1.60 1.73 1.90 2.18 2.48 2.80 3.12 3.48 3.61 3.81 4.45 5.12 5.75 6.40 7.04 7.58 7.83 7.83 7.63 7.05 6.55 6.18 5.95 5.71 5.64 5.70 5.58 5.40 5.09 4.85 4.52 4.41 4.37 4.53 4.35
0.08 0.09 0.10 0.14 0.20 0.33 0.38 0.72 1.31 1.60 1.69 1.66 1.70 1.77 1.76 1.76 1.89 2.09 2.35 2.60 2.78 3.16 3.55 3.85 4.52 5.26 5.90 6.67 7.40 7.79 7.96 7.93 7.55 6.78 6.01 5.50 5.19 4.92 4.73 4.78 4.70 4.54 4.35 4.19 4.14 4.19 4.10 4.04 3.87
0.07 0.11 0.16 0.21 0.29 0.44 0.44 0.71 1.44 1.86 2.02 2.08 2.01 2.02 1.92 1.82 1.79 1.85 2.12 2.29 2.56 2.91 3.35 3.85 4.22 4.88 5.69 6.29 6.80 6.95 7.08 7.02 6.59 6.15 5.66 5.31 4.83 4.37 4.02 3.92 3.86 3.67 3.50 3.52 3.56 3.67 3.63 3.67 3.67
0.09 0.19 0.40 0.56 0.61 0.57 0.44 0.74 1.45 1.77 1.72 1.79 1.84 1.89 1.87 1.71 1.72 1.95 2.22 2.19 2.47 2.80 3.23 3.72 4.14 4.58 5.17 5.74 6.17 6.36 6.51 6.43 5.93 5.48 5.04 4.63 4.12 3.73 3.44 3.26 3.21 3.10 3.04 3.05 3.22 3.34 3.28 3.24 3.30
0.09 0.18 0.46 0.70 0.73 0.74 0.71 1.13 1.68 1.72 1.58 1.47 1.54 1.66 1.79 1.79 1.78 1.86 1.99 2.10 2.42 2.69 2.98 3.40 3.75 4.15 4.40 4.68 5.14 5.39 5.56 5.41 5.05 4.57 4.07 3.74 3.42 3.08 2.92 2.82 2.76 2.67 2.59 2.55 2.77 2.89 2.95 2.96 3.02
0.12 0.17 0.26 0.36 0.44 0.75 1.15 1.50 1.89 1.86 1.78 1.62 1.52 1.57 1.69 1.68 1.71 1.83 1.96 2.10 2.32 2.67 3.14 3.36 3.37 3.57 3.81 4.09 4.29 4.37 4.46 4.34 4.10 3.79 3.46 3.14 2.84 2.55 2.42 2.38 2.40 2.37 2.33 2.38 2.58 2.63 2.58 2.64 2.66
0.12 0.15 0.22 0.37 0.70 1.00 1.32 1.89 2.28 2.39 2.36 2.20 1.81 1.70 1.63 1.64 1.68 1.79 1.92 2.14 2.22 2.26 2.65 3.02 3.09 3.17 3.24 3.39 3.48 3.41 3.53 3.44 3.38 3.19 2.93 2.67 2.49 2.25 2.18 2.14 2.15 2.18 2.14 2.16 2.29 2.39 2.44 2.43 2.39
0.17 0.19 0.25 0.39 0.54 0.99 1.46 2.14 2.35 2.65 2.76 2.64 2.25 2.10 2.04 1.97 1.88 1.86 1.85 1.91 2.08 2.15 2.29 2.55 2.81 2.86 2.89 3.06 3.08 2.98 3.08 3.06 3.07 2.93 2.71 2.58 2.53 2.40 2.22 2.12 2.17 2.18 2.11 2.08 2.10 2.03 2.12 2.22 2.26
0.17 0.22 0.33 0.62 0.68 0.77 1.33 2.36 2.62 2.77 2.68 2.42 2.29 2.19 2.03 1.90 1.76 1.73 1.67 1.66 1.76 1.98 2.23 2.40 2.52 2.52 2.60 2.74 2.87 2.93 2.97 2.89 2.79 2.60 2.48 2.38 2.26 2.11 2.07 2.06 2.11 2.10 2.02 2.01 1.94 1.81 1.88 1.99 2.06